Simultaneous Nadir Overpasses (SNOs) Predictions

Prediction of SNOs between AQUA and METOP-B Satellite Orbit:

Table of predicted SNOs for the next 14.0 days since TLE Epoch: 2/3/2025
Index Date (AQUA) Time (AQUA) Lat,Lon (AQUA) SZA (AQUA ) Date (METOP-B) Time (METOP-B) Lat,Lon (METOP-B) SZA (METOP-B ) Distance(km) Time Diff (sec)
1 02/05/2025 00:55:49 76.89, 164.63 92.76 02/05/2025 00:55:08 76.87, 164.57 92.75 2.59 41
2 02/05/2025 01:45:08 -76.92, -27.82 87.22 02/05/2025 01:45:49 -76.91, -27.93 87.23 3.02 41
3 02/07/2025 13:45:17 76.88, -27.65 91.97 02/07/2025 13:44:14 76.89, -27.65 91.98 1.00 63
4 02/07/2025 14:34:36 -76.91, 139.92 88.02 02/07/2025 14:34:55 -76.94, 139.85 87.99 3.23 19
5 02/10/2025 02:34:36 76.55, 141.24 90.81 02/10/2025 02:33:30 76.45, 138.39 90.77 74.85 66
6 02/10/202
